Regional Weather Roundup
Issued by NWS

Home | Current Version | Previous Version | Graphics & Text | Print | Product List | Glossary On
Versions: 1 2 3 4 5 6 7 8 9 10 11 12 13 14 15 16 17 18 19 20 21 22 23 24 25 26 27 28
000
ASUS45 KBOI 182310
RWRID
WEATHER ROUNDUP FOR IDAHO
NATIONAL WEATHER SERVICE BOISE ID
500 PM MDT FRI APR 18 2014

NOTE: "FAIR" INDICATES FEW OR NO CLOUDS BELOW 12000 FEET
WITH NO SIGNIFICANT WEATHER AND/OR OBSTRUCTIONS TO VISIBILITY

IDZ012-014-190000-
SOUTHWEST IDAHO


CITY           SKY/WX    TMP DP  RH WIND       PRES   REMARKS
BOISE          SUNNY     61  27  27 N8        29.97F
CALDWELL       SUNNY     64  25  22 NE12      29.99F
MOUNTAIN HOME  SUNNY     63  24  23 N15       29.96F
$$

IDZ016-017-190000-
SOUTHCENTRAL IDAHO


CITY           SKY/WX    TMP DP  RH WIND       PRES   REMARKS
BURLEY         SUNNY     58  27  30 W14G23    29.96S
JEROME         SUNNY     60  25  26 W17G24    29.96F
TWIN FALLS     SUNNY     61  28  28 W17       29.96F
$$

IDZ019>023-190000-
SOUTHEAST IDAHO


CITY           SKY/WX    TMP DP  RH WIND       PRES   REMARKS
IDAHO FALLS    MOSUNNY   59  27  29 SW30G43   29.88S
POCATELLO      MOSUNNY   59  28  30 SW24      29.96F
REXBURG        MOSUNNY   57  27  31 SW29G39   29.86S
$$

IDZ006-010-011-018-031-032-190000-
CENTRAL IDAHO MOUNTAINS


CITY           SKY/WX    TMP DP  RH WIND       PRES   REMARKS
MCCALL         SUNNY     49  10  20 W8G18     29.98S
HAILEY         MOSUNNY   57   9  14 NW15G25   29.92S
STANLEY          N/A     43  16  33 NW14G21   29.98S
SALMON         MOSUNNY   55  19  24 N18G28    29.88R
CHALLIS        MOSUNNY   55   6  14 NW21G29   29.90S
$$

IDZ002-004-006-007-026-190000-
NORTHERN IDAHO


CITY           SKY/WX    TMP DP  RH WIND       PRES   REMARKS
LEWISTON       SUNNY     59  22  24 NW13G24   30.00S
LOWELL           N/A     62  19  19 S8        29.99R
COEUR D`ALENE  MOSUNNY   52  28  40 SW20G25   29.97S
MULLAN PASS    LGT SNOW  28  25  86 W10G20    29.93R WCI  19
$$



USA.gov is the U.S. government's official web portal to all federal, state and local government web resources and services.